| time (UTC) | temp F | wind direction | speed knots | gust knots | rain 1hr in | rain 24hr in | rain mn in | humidity % | barometer mb |
| 20260510101519 | 52 | 24 | 0.0 | 0.0 | 0.00 | 0.00 | 0.00 | 80 | 1013.4 |
| 20260510100016 | 52 | 11 | 0.0 | 0.0 | 0.00 | 0.00 | 0.00 | 80 | 1013.1 |
| 20260510094514 | 52 | 13 | 0.0 | 0.0 | 0.00 | 0.00 | 0.00 | 80 | 1013.0 |
| 20260510093013 | 52 | 12 | 0.0 | 0.0 | 0.00 | 0.00 | 0.00 | 80 | 1012.7 |
| 20260510091510 | 52 | 12 | 0.0 | 0.0 | 0.00 | 0.00 | 0.00 | 80 | 1012.6 |
| 20260510090009 | 52 | 13 | 0.0 | 0.0 | 0.00 | 0.00 | 0.00 | 80 | 1012.3 |
| 20260510084509 | 53 | 355 | 0.0 | 0.0 | 0.00 | 0.00 | 0.00 | 78 | 1012.2 |
| 20260510083007 | 53 | 9 | 0.0 | 0.0 | 0.00 | 0.00 | 0.00 | 79 | 1012.3 |
| 20260510081507 | 53 | 11 | 0.0 | 0.0 | 0.00 | 0.00 | 0.00 | 79 | 1012.3 |
| 20260510080005 | 53 | 11 | 0.0 | 0.0 | 0.00 | 0.00 | 0.00 | 80 | 1012.2 |
| 20260510074502 | 53 | 11 | 0.0 | 0.0 | 0.00 | 0.00 | 0.00 | 79 | 1011.8 |
| 20260510073101 | 53 | 11 | 0.0 | 0.0 | 0.00 | 0.00 | 0.00 | 79 | 1011.4 |
| 20260510071559 | 54 | 11 | 0.0 | 0.0 | 0.00 | 0.00 | 0.00 | 78 | 1011.2 |
| 20260510070057 | 54 | 17 | 0.0 | 0.0 | 0.00 | 0.00 | 0.00 | 77 | 1011.4 |
| 20260510064605 | 54 | 355 | 0.0 | 0.0 | 0.00 | 0.00 | 0.00 | 75 | 1011.4 |
| 20260510063054 | 54 | 355 | 0.0 | 0.0 | 0.00 | 0.00 | 0.00 | 75 | 1011.5 |
| 20260510061556 | 55 | 355 | 0.0 | 0.0 | 0.00 | 0.00 | 0.00 | 74 | 1011.5 |
| 20260510060050 | 55 | 355 | 0.0 | 0.0 | 0.00 | 0.00 | 0.00 | 74 | 1011.2 |
| 20260510054549 | 55 | 355 | 0.0 | 0.0 | 0.00 | 0.00 | 0.00 | 75 | 1011.1 |
| 20260510053044 | 55 | 355 | 0.0 | 0.0 | 0.00 | 0.00 | 0.00 | 73 | 1010.8 |
| 20260510051541 | 55 | 355 | 0.0 | 0.0 | 0.00 | 0.00 | 0.00 | 73 | 1010.5 |
| 20260510050045 | 56 | 355 | 0.0 | 0.0 | 0.00 | 0.00 | 0.00 | 72 | 1010.3 |
| 20260510044552 | 56 | 355 | 0.0 | 0.0 | 0.00 | 0.00 | 0.00 | 69 | 1010.3 |
| 20260510043035 | 57 | 355 | 0.0 | 0.0 | 0.00 | 0.00 | 0.00 | 69 | 1010.2 |
| 20260510041532 | 57 | 5 | 0.0 | 0.0 | 0.00 | 0.00 | 0.00 | 66 | 1010.0 |
| 20260510040029 | 58 | 5 | 0.0 | 0.0 | 0.00 | 0.00 | 0.00 | 63 | 1010.0 |
| 20260510034525 | 59 | 350 | 0.0 | 0.0 | 0.00 | 0.00 | 0.00 | 59 | 1009.6 |
| 20260510033024 | 60 | 334 | 0.0 | 0.0 | 0.00 | 0.00 | 0.00 | 59 | 1009.4 |
| 20260510031524 | 61 | 9 | 0.0 | 0.0 | 0.00 | 0.00 | 0.00 | 56 | 1008.8 |
| 20260510030031 | 63 | 360 | 0.0 | 0.0 | 0.00 | 0.00 | 0.00 | 57 | 1008.7 |
| 20260510024518 | 63 | 360 | 0.0 | 0.0 | 0.00 | 0.00 | 0.00 | 57 | 1008.5 |
| 20260510023013 | 64 | 360 | 0.0 | 0.0 | 0.00 | 0.00 | 0.00 | 54 | 1008.3 |
| 20260510021515 | 65 | 360 | 0.0 | 0.0 | 0.00 | 0.00 | 0.00 | 54 | 1007.9 |
| 20260510020012 | 64 | 360 | 0.0 | 0.0 | 0.00 | 0.00 | 0.00 | 53 | 1007.6 |
| 20260510014511 | 65 | 360 | 0.0 | 0.0 | 0.00 | 0.00 | 0.00 | 53 | 1007.3 |
| 20260510013013 | 66 | 360 | 0.0 | 0.0 | 0.00 | 0.00 | 0.00 | 51 | 1007.1 |
| 20260510011511 | 66 | 360 | 0.0 | 0.0 | 0.00 | 0.00 | 0.00 | 50 | 1006.8 |
| 20260510010011 | 66 | 360 | 0.0 | 0.0 | 0.00 | 0.00 | 0.00 | 55 | 1006.5 |
| 20260510004509 | 67 | 360 | 0.0 | 0.0 | 0.00 | 0.00 | 0.00 | 51 | 1006.5 |
| 20260510003019 | 65 | 242 | 0.0 | 0.0 | 0.00 | 0.00 | 0.00 | 72 | 1006.2 |
| 20260510001507 | 66 | 224 | 0.0 | 0.0 | 0.00 | 0.00 | 0.00 | 72 | 1005.8 |
| 20260510000006 | 67 | 360 | 0.0 | 0.0 | 0.00 | 0.00 | 0.00 | 72 | 1005.6 |
| 20260509234512 | 67 | 360 | 0.0 | 0.0 | 0.00 | 0.00 | 0.00 | 72 | 1005.6 |
| 20260509233005 | 68 | 360 | 0.0 | 0.0 | 0.00 | 0.00 | 0.00 | 70 | 1005.4 |
| 20260509231505 | 68 | 360 | 0.0 | 0.0 | 0.00 | 0.00 | 0.00 | 68 | 1005.5 |
| 20260509230004 | 68 | 225 | 0.0 | 0.0 | 0.00 | 0.00 | 0.00 | 67 | 1005.6 |
| 20260509224503 | 69 | 360 | 0.0 | 0.0 | 0.00 | 0.00 | 0.00 | 65 | 1005.5 |
| 20260509223002 | 70 | 360 | 0.0 | 0.0 | 0.00 | 0.00 | 0.00 | 63 | 1005.6 |
| 20260509221503 | 69 | 360 | 0.0 | 0.0 | 0.00 | 0.00 | 0.00 | 65 | 1005.4 |
| 20260509220002 | 69 | 360 | 0.0 | 0.0 | 0.00 | 0.00 | 0.00 | 66 | 1005.3 |
| 20260509214501 | 70 | 360 | 0.0 | 0.0 | 0.00 | 0.00 | 0.00 | 62 | 1005.2 |
| 20260509213101 | 70 | 360 | 0.0 | 0.0 | 0.00 | 0.00 | 0.00 | 62 | 1005.2 |
| 20260509211559 | 70 | 189 | 0.0 | 0.0 | 0.00 | 0.00 | 0.00 | 65 | 1004.9 |
| 20260509210057 | 70 | 360 | 0.0 | 0.0 | 0.00 | 0.00 | 0.00 | 63 | 1005.0 |
| 20260509204600 | 70 | 360 | 0.0 | 0.0 | 0.00 | 0.06 | 0.00 | 64 | 1005.4 |
| 20260509203119 | 70 | 208 | 0.0 | 0.0 | 0.00 | 0.06 | 0.00 | 63 | 1005.4 |
| 20260509201601 | 70 | 360 | 0.0 | 0.0 | 0.00 | 0.06 | 0.00 | 63 | 1005.4 |
| 20260509200056 | 70 | 360 | 0.0 | 0.0 | 0.00 | 0.06 | 0.00 | 64 | 1005.7 |
| 20260509194546 | 70 | 360 | 0.0 | 0.0 | 0.00 | 0.17 | 0.00 | 65 | 1005.8 |
| 20260509193047 | 69 | 360 | 0.0 | 0.0 | 0.00 | 0.17 | 0.00 | 67 | 1005.9 |
| 20260509191554 | 69 | 360 | 0.0 | 0.0 | 0.00 | 0.17 | 0.00 | 71 | 1005.8 |
| 20260509190038 | 68 | 360 | 0.0 | 0.0 | 0.00 | 0.17 | 0.00 | 71 | 1005.9 |
| 20260509184536 | 68 | 191 | 0.0 | 0.0 | 0.00 | 0.23 | 0.00 | 73 | 1005.9 |
| 20260509183034 | 67 | 192 | 0.0 | 0.0 | 0.00 | 0.23 | 0.00 | 76 | 1006.1 |
| 20260509181537 | 67 | 360 | 0.0 | 0.0 | 0.00 | 0.23 | 0.00 | 76 | 1005.9 |
| 20260509180031 | 67 | 360 | 0.0 | 0.0 | 0.00 | 0.23 | 0.00 | 77 | 1005.9 |
| 20260509174529 | 67 | 360 | 0.0 | 0.0 | 0.00 | 0.23 | 0.00 | 79 | 1005.9 |
| 20260509173026 | 66 | 360 | 0.0 | 0.0 | 0.00 | 0.23 | 0.00 | 79 | 1006.1 |
| 20260509171523 | 65 | 360 | 0.0 | 0.0 | 0.00 | 0.23 | 0.00 | 78 | 1006.3 |
| 20260509170021 | 65 | 190 | 0.0 | 0.0 | 0.00 | 0.23 | 0.00 | 82 | 1006.5 |
| 20260509164520 | 65 | 180 | 0.0 | 0.0 | 0.00 | 0.23 | 0.00 | 81 | 1006.5 |
| 20260509163018 | 64 | 197 | 0.0 | 0.0 | 0.00 | 0.23 | 0.00 | 81 | 1006.6 |
| 20260509161517 | 63 | 360 | 0.0 | 0.0 | 0.00 | 0.23 | 0.00 | 81 | 1006.4 |
| 20260509160015 | 62 | 192 | 0.0 | 0.0 | 0.00 | 0.23 | 0.00 | 84 | 1006.5 |
| 20260509154516 | 62 | 360 | 0.0 | 0.0 | 0.00 | 0.23 | 0.00 | 84 | 1006.4 |
| 20260509153011 | 61 | 360 | 0.0 | 0.0 | 0.00 | 0.23 | 0.00 | 84 | 1006.5 |
| 20260509151506 | 61 | 194 | 0.0 | 0.0 | 0.00 | 0.23 | 0.00 | 84 | 1006.6 |
| 20260509150002 | 60 | 360 | 0.0 | 0.0 | 0.00 | 0.23 | 0.00 | 84 | 1006.6 |
| 20260509144604 | 60 | 215 | 0.0 | 0.0 | 0.00 | 0.23 | 0.00 | 85 | 1006.7 |
| 20260509143055 | 60 | 360 | 0.0 | 0.0 | 0.00 | 0.23 | 0.00 | 86 | 1006.7 |
| 20260509141553 | 59 | 236 | 0.0 | 0.0 | 0.00 | 0.23 | 0.00 | 87 | 1006.9 |
| 20260509140051 | 59 | 360 | 0.0 | 0.0 | 0.00 | 0.23 | 0.00 | 88 | 1006.7 |
| 20260509134548 | 58 | 360 | 0.0 | 0.0 | 0.00 | 0.23 | 0.00 | 89 | 1006.7 |
| 20260509133044 | 57 | 360 | 0.0 | 0.0 | 0.00 | 0.23 | 0.00 | 90 | 1007.0 |
| 20260509131547 | 56 | 360 | 0.0 | 0.0 | 0.00 | 0.23 | 0.00 | 90 | 1006.9 |
| 20260509130053 | 56 | 360 | 0.0 | 0.0 | 0.00 | 0.23 | 0.00 | 90 | 1006.6 |
| 20260509124539 | 55 | 208 | 0.0 | 0.0 | 0.00 | 0.23 | 0.00 | 89 | 1006.8 |
| 20260509123030 | 54 | 360 | 0.0 | 0.0 | 0.00 | 0.23 | 0.00 | 89 | 1006.8 |
| 20260509121529 | 54 | 360 | 0.0 | 0.0 | 0.00 | 0.23 | 0.00 | 89 | 1007.0 |
| 20260509120031 | 53 | 360 | 0.0 | 0.0 | 0.00 | 0.23 | 0.00 | 89 | 1007.1 |
| 20260509114523 | 52 | 200 | 0.0 | 0.0 | 0.00 | 0.26 | 0.00 | 89 | 1007.1 |
| 20260509113022 | 52 | 200 | 0.0 | 0.0 | 0.00 | 0.26 | 0.00 | 90 | 1006.8 |
| 20260509111521 | 53 | 360 | 0.0 | 0.0 | 0.00 | 0.26 | 0.00 | 89 | 1006.7 |
| 20260509110021 | 53 | 360 | 0.0 | 0.0 | 0.00 | 0.26 | 0.00 | 89 | 1006.4 |
| 20260509104516 | 53 | 360 | 0.0 | 0.0 | 0.00 | 0.27 | 0.00 | 89 | 1006.4 |
| 20260509103017 | 53 | 213 | 0.0 | 0.0 | 0.00 | 0.27 | 0.00 | 89 | 1006.5 |